TimeEST,TemperatureF,Dew PointF,Humidity,Sea Level PressureIn,VisibilityMPH,Wind Direction,Wind SpeedMPH,Gust SpeedMPH,PrecipitationIn,Events,Conditions,WindDirDegrees,DateUTC
12:54 AM,39.0,37.9,96,30.09,10.0,NE,9.2,-,N/A,,Overcast,40,2012-11-04 04:54:00
1:15 AM,39.2,37.4,93,30.08,10.0,NNE,8.1,-,N/A,,Overcast,30,2012-11-04 05:15:00
1:54 AM,39.0,37.9,96,30.10,10.0,NNE,5.8,-,N/A,,Overcast,20,2012-11-04 05:54:00
1:54 AM,39.0,37.9,96,30.10,10.0,NNE,5.8,-,N/A,,Mostly Cloudy,20,2012-11-04 06:54:00
2:54 AM,37.0,36.0,96,30.10,10.0,NNE,6.9,-,N/A,,Mostly Cloudy,20,2012-11-04 07:54:00
3:54 AM,37.0,36.0,96,30.10,10.0,North,6.9,-,N/A,,Partly Cloudy,10,2012-11-04 08:54:00
4:54 AM,36.0,35.1,97,30.12,10.0,North,6.9,-,N/A,,Clear,10,2012-11-04 09:54:00
5:54 AM,35.1,34.0,96,30.13,9.0,NNE,4.6,-,N/A,,Clear,30,2012-11-04 10:54:00
6:54 AM,33.1,32.0,96,30.14,6.0,North,4.6,-,N/A,,Clear,360,2012-11-04 11:54:00
7:54 AM,34.0,34.0,100,30.15,5.0,North,5.8,-,N/A,,Clear,10,2012-11-04 12:54:00
8:54 AM,39.0,37.0,93,30.16,8.0,NNE,8.1,-,N/A,,Clear,30,2012-11-04 13:54:00
9:54 AM,43.0,37.0,80,30.15,10.0,NE,8.1,-,N/A,,Clear,40,2012-11-04 14:54:00
10:54 AM,46.0,36.0,68,30.16,10.0,NNE,4.6,-,N/A,,Clear,30,2012-11-04 15:54:00
11:54 AM,46.9,35.1,63,30.16,10.0,Calm,Calm,-,N/A,,Clear,0,2012-11-04 16:54:00
12:54 PM,48.0,35.1,61,30.14,10.0,NNW,5.8,-,N/A,,Partly Cloudy,340,2012-11-04 17:54:00
1:54 PM,50.0,35.1,57,30.13,10.0,North,5.8,-,N/A,,Scattered Clouds,10,2012-11-04 18:54:00
2:54 PM,51.1,36.0,56,30.12,10.0,North,6.9,-,N/A,,Partly Cloudy,360,2012-11-04 19:54:00
3:54 PM,50.0,34.0,54,30.12,10.0,WNW,5.8,-,N/A,,Clear,300,2012-11-04 20:54:00
4:54 PM,46.9,34.0,61,30.12,10.0,NNW,4.6,-,N/A,,Clear,330,2012-11-04 21:54:00
5:54 PM,44.1,33.1,65,30.12,10.0,NW,4.6,-,N/A,,Clear,310,2012-11-04 22:54:00
6:54 PM,43.0,33.1,68,30.15,10.0,NW,4.6,-,N/A,,Clear,310,2012-11-04 23:54:00
7:54 PM,39.0,33.1,79,30.16,10.0,NNW,6.9,-,N/A,,Clear,330,2012-11-05 00:54:00
8:54 PM,37.9,32.0,79,30.17,10.0,NNW,8.1,-,N/A,,Clear,340,2012-11-05 01:54:00
9:54 PM,35.1,30.0,82,30.17,10.0,NNW,5.8,-,N/A,,Clear,340,2012-11-05 02:54:00
10:54 PM,34.0,30.0,85,30.16,10.0,North,5.8,-,N/A,,Clear,350,2012-11-05 03:54:00